Location: Rostock
(54.0884°N, 12.1234°E)
Time: 08:49:59
(UTC+02:00)

ISS - Visible Passes

Search period start: 28 May 2017 00:00
Search period end: 07 June 2017 00:00
Orbit: 402 x 408 km, 51.6° (Epoch: 28 May)

Date Brightness Start Highest point End Pass type
(mag) Time Alt. Az. Time Alt. Az. Time Alt. Az.
28 May -3.8 00:06:48 10° W 00:10:03 56° S 00:13:17 10° ESE visible
28 May -3.2 01:43:14 10° W 01:46:16 34° SSW 01:47:25 26° SSE visible
28 May -3.7 23:14:49 10° WSW 23:18:04 54° S 23:21:18 10° E visible
29 May -3.5 00:51:10 10° W 00:54:20 43° SSW 00:56:01 23° SE visible
29 May -1.6 02:28:08 10° WSW 02:28:37 12° WSW 02:28:37 12° WSW visible
29 May -3.6 22:22:52 10° WSW 22:26:04 48° S 22:29:17 10° E visible
29 May -3.7 23:59:08 10° W 00:02:22 51° S 00:05:08 13° ESE visible
30 May -2.3 01:35:46 10° W 01:37:45 21° SW 01:37:45 21° SW visible
30 May -3.7 23:07:06 10° W 23:10:22 56° S 23:13:35 10° ESE visible
31 May -3.0 00:43:35 10° W 00:46:32 31° SSW 00:47:05 29° S visible
31 May -3.3 23:51:28 10° W 23:54:35 40° SSW 23:56:29 20° SE visible
01 Jun -1.5 01:28:38 10° WSW 01:29:08 12° WSW 01:29:08 12° WSW visible
01 Jun -3.5 22:59:23 10° W 23:02:35 48° SSW 23:05:47 10° ESE visible
02 Jun -2.3 00:36:06 10° W 00:38:36 20° SSW 00:38:36 20° SSW visible
02 Jun -2.7 23:43:49 10° W 23:46:42 28° SSW 23:48:06 20° SSE visible
03 Jun -3.1 22:51:39 10° W 22:54:43 36° SSW 22:57:38 11° SE visible
04 Jun -1.6 00:29:08 10° WSW 00:30:17 12° SW 00:30:17 12° SW visible
04 Jun -2.0 23:36:21 10° WSW 23:38:40 18° SSW 23:39:51 15° S visible
05 Jun -2.4 22:43:58 10° W 22:46:44 25° SSW 22:49:26 10° SSE visible
06 Jun -1.4 23:29:50 10° SW 23:30:29 10° SW 23:31:10 10° SSW visible
